Location: Sears
(37.7625°N, 100.1060°W)
Time: 21:36:37
(UTC+00:00)

Cosmos 2082 Rocket - Pass Details

Date: 29 October 2020
Orbit: 833 x 854 km, 71.0° (Epoch: 01 December)

Event Time Altitude Azimuth Distance (km) Brightness Sun altitude
Exits shadow 12:09:35 13° 261° (W) 2,224 3.8 -11.2°
Maximum altitude 12:12:59 22° 304° (NW) 1,763 3.4 -10.5°
Drops below altitude 10° 12:17:14 10° 354° (N) 2,451 4.5 -9.7°
Sets 12:20:16 0° 10° (N) 3,391 5.3 -9.1°
